EW1152 Bellingham MA US current weather conditions

sailwx.info

Wind from 355 at 4 knots gusting 9

Air temperature 4.4° C
Dewpoint 3.7° C

Last reported at 2020-Apr-04 11:52 UTC.
Time now 2020-Apr-04 12:30 UTC

Location: N 42°05' W 071°29'.
View on Google Maps.

See reports from other nearby stations

  
Tides and Currents Weather Stations Pressure Air Temp Water Temp Dewpoint Dewpoint Depression Visibility Wind Speed Wind Dir Waves Ship Positions
date/time (UTC)wind fromknots sea level pressurealtimeterstation pressurevisibilityair tempwater tempwave heightnotes
2020-Apr-04 12:07 027 3 gusting 10 4.4
2020-Apr-04 12:02 344 3 gusting 10 4.4
2020-Apr-04 11:52 355 4 gusting 9 4.4
2020-Apr-04 11:47 349 4 gusting 13 4.4
2020-Apr-04 11:42 342 5 gusting 13 4.4
2020-Apr-04 11:37 345 5 gusting 13 4.4
2020-Apr-04 11:32 355 6 gusting 11 4.4
2020-Apr-04 11:27 355 5 gusting 11 4.4
2020-Apr-04 11:22 010 5 gusting 10 4.4
2020-Apr-04 11:17 4.4
2020-Apr-04 11:12 355 5 gusting 11 4.4
2020-Apr-04 11:07 4.4
2020-Apr-04 11:02 355 6 gusting 14 4.4
2020-Apr-04 10:57 022 6 gusting 14 4.4
2020-Apr-04 10:52 355 5 gusting 13 4.4
2020-Apr-04 10:47 029 5 gusting 13 4.4
2020-Apr-04 10:42 322 6 gusting 13 4.4
2020-Apr-04 10:37 355 6 gusting 12 4.4
2020-Apr-04 10:32 024 6 gusting 13 4.4
2020-Apr-04 10:27 026 6 gusting 13 4.4
2020-Apr-04 10:22 012 5 gusting 13 4.4
2020-Apr-04 10:17 345 6 gusting 12 4.4
2020-Apr-04 10:12 319 6 gusting 12 4.4
2020-Apr-04 10:07 4.4
2020-Apr-04 10:02 005 6 gusting 11 4.4
2020-Apr-04 09:57 063 5 gusting 11 4.4
2020-Apr-04 09:52 033 5 gusting 12 4.4
2020-Apr-04 09:47 005 6 gusting 12 4.4
2020-Apr-04 09:42 342 6 gusting 11 4.4
2020-Apr-04 09:37 4.4
2020-Apr-04 09:32 355 5 gusting 11 4.4
2020-Apr-04 09:27 013 4 gusting 14 4.4
2020-Apr-04 09:22 005 5 gusting 14 4.4
2020-Apr-04 09:17 021 6 gusting 14 4.4
2020-Apr-04 09:12 020 5 gusting 13 4.4
2020-Apr-04 09:07 4.4
2020-Apr-04 09:02 012 5 gusting 13 4.4
2020-Apr-04 08:57 355 6 gusting 13 5.0
2020-Apr-04 08:52 351 6 gusting 13 5.0
2020-Apr-04 08:47 344 6 gusting 13 5.0
2020-Apr-04 08:42 048 5 gusting 12 5.0
2020-Apr-04 08:37 015 6 gusting 13 5.0
2020-Apr-04 08:32 325 6 gusting 13 5.0
2020-Apr-04 08:27 017 6 gusting 13 5.0
2020-Apr-04 08:22 355 6 gusting 13 5.0
2020-Apr-04 08:17 022 6 gusting 13 5.0
2020-Apr-04 08:12 019 6 gusting 13 5.0
2020-Apr-04 08:07 355 6 gusting 13 5.0
2020-Apr-04 08:02 344 6 gusting 14 5.0
2020-Apr-04 07:57 355 6 gusting 14 5.0
2020-Apr-04 07:52 319 6 gusting 12 5.0
2020-Apr-04 07:47 037 5 gusting 12 5.0
2020-Apr-04 07:42 348 5 gusting 14 5.0
2020-Apr-04 07:37 019 6 gusting 14 5.0
2020-Apr-04 07:32 338 6 gusting 14 5.6
2020-Apr-04 07:27 019 6 gusting 15 5.6
2020-Apr-04 07:22 336 6 gusting 15 5.6
2020-Apr-04 07:17 005 7 gusting 15 5.6
2020-Apr-04 07:12 052 7 gusting 14 5.6
2020-Apr-04 07:07 346 7 gusting 15 5.6
2020-Apr-04 07:02 046 7 gusting 15 5.6
2020-Apr-04 06:57 021 6 gusting 15 5.6
2020-Apr-04 06:52 295 6 gusting 15 5.6
2020-Apr-04 06:47 350 7 gusting 15 5.6
2020-Apr-04 06:42 012 7 gusting 15 5.6
2020-Apr-04 06:37 342 6 gusting 14 5.6
2020-Apr-04 06:32 022 6 gusting 15 5.6
2020-Apr-04 06:27 355 6 gusting 16 5.6
2020-Apr-04 06:22 005 6 gusting 16 5.6
2020-Apr-04 06:17 026 7 gusting 17 5.6
2020-Apr-04 06:12 017 6 gusting 17 5.6
2020-Apr-04 06:07 050 7 gusting 17 5.6
2020-Apr-04 06:02 036 8 gusting 15 5.6
2020-Apr-04 05:57 031 6 gusting 14 5.6
2020-Apr-04 05:52 328 5 gusting 14 5.6
2020-Apr-04 05:47 030 6 gusting 13 5.6
2020-Apr-04 05:42 326 6 gusting 13 5.6
2020-Apr-04 05:37 005 6 gusting 13 5.6
2020-Apr-04 05:32 019 6 gusting 13 5.6
2020-Apr-04 05:27 054 6 gusting 14 5.6
2020-Apr-04 05:22 013 6 gusting 15 5.6
2020-Apr-04 05:17 005 7 gusting 15 5.6
2020-Apr-04 05:12 344 7 gusting 14 5.6
2020-Apr-04 05:07 012 6 gusting 18 5.6
2020-Apr-04 05:02 018 6 gusting 18 5.6
2020-Apr-04 04:57 021 7 gusting 18 6.1
2020-Apr-04 04:52 029 6 gusting 14 6.1
2020-Apr-04 04:47 355 6 gusting 11 6.1
2020-Apr-04 04:42 014 6 gusting 12 6.1
2020-Apr-04 04:37 6.1
2020-Apr-04 04:32 344 5 gusting 13 6.1
2020-Apr-04 04:27 012 6 gusting 13 6.1
2020-Apr-04 04:22 355 6 gusting 13 6.1
2020-Apr-04 04:17 032 6 gusting 13 6.1
2020-Apr-04 04:12 350 6 gusting 14 6.1
2020-Apr-04 04:07 053 6 gusting 16 6.1
2020-Apr-04 04:02 029 7 gusting 16 6.1
2020-Apr-04 03:57 6.1
2020-Apr-04 03:52 032 6 gusting 13 6.1
2020-Apr-04 03:47 013 5 gusting 13 6.1
2020-Apr-04 03:42 6.1
2020-Apr-04 03:37 005 6 gusting 13 6.1
2020-Apr-04 03:32 005 7 gusting 13 6.1
2020-Apr-04 03:27 6.1
2020-Apr-04 03:22 026 6 gusting 18 6.1
2020-Apr-04 03:17 028 6 gusting 19 6.1
2020-Apr-04 03:12 011 8 gusting 19 6.1
2020-Apr-04 03:07 028 8 gusting 18 6.1
2020-Apr-04 03:02 009 7 gusting 16 6.1
2020-Apr-04 02:57 336 7 gusting 16 6.7
2020-Apr-04 02:52 014 8 gusting 17 6.7
2020-Apr-04 02:47 321 9 gusting 17 6.7
2020-Apr-04 02:42 022 8 gusting 19 6.7
2020-Apr-04 02:37 6.7
2020-Apr-04 02:32 343 8 gusting 19 6.7
2020-Apr-04 02:27 355 7 gusting 19 6.7
2020-Apr-04 02:22 047 6 gusting 18 6.7
2020-Apr-04 02:17 038 8 gusting 18 6.7
2020-Apr-04 02:12 024 8 gusting 18 6.7
2020-Apr-04 02:07 013 7 gusting 18 6.7
2020-Apr-04 02:02 005 7 gusting 18 6.7
2020-Apr-04 01:57 216 7 gusting 16 6.7
2020-Apr-04 01:52 011 7 gusting 16 6.7
2020-Apr-04 01:47 092 6 gusting 16 6.7
2020-Apr-04 01:42 355 7 gusting 20 6.7
2020-Apr-04 01:37 021 9 gusting 20 6.7
2020-Apr-04 01:32 005 8 gusting 16 6.7
2020-Apr-04 01:27 331 7 gusting 18 7.2
2020-Apr-04 01:22 338 7 gusting 18 7.2
2020-Apr-04 01:17 355 6 gusting 21 7.2
2020-Apr-04 01:12 016 7 gusting 21 7.2
2020-Apr-04 01:07 028 8 gusting 21 7.2
2020-Apr-04 01:02 013 8 gusting 17 7.2
2020-Apr-04 00:57 017 7 gusting 17 7.2
2020-Apr-04 00:52 327 6 gusting 16 7.2
2020-Apr-04 00:47 018 6 gusting 19 7.2
2020-Apr-04 00:42 318 6 gusting 19 7.2
2020-Apr-04 00:37 7.2
2020-Apr-04 00:32 346 6 gusting 15 7.2
2020-Apr-04 00:27 348 6 gusting 17 7.2
2020-Apr-04 00:22 344 7 gusting 17 7.2
2020-Apr-04 00:17 036 7 gusting 15 7.2
2020-Apr-04 00:12 032 7 gusting 17 7.2
2020-Apr-04 00:07 005 8 gusting 17 7.2
2020-Apr-04 00:02 005 6 gusting 17 7.2
2020-Apr-03 23:57 107 6 gusting 17 7.2
2020-Apr-03 23:52 005 7 gusting 17 7.2
2020-Apr-03 23:47 355 7 gusting 17 7.2
2020-Apr-03 23:42 335 6 gusting 19 7.2
2020-Apr-03 23:37 010 7 gusting 19 7.2
2020-Apr-03 23:32 023 8 gusting 19 7.2
2020-Apr-03 23:27 044 6 gusting 16 7.2
2020-Apr-03 23:22 053 6 gusting 16 7.2
2020-Apr-03 23:17 012 6 gusting 17 7.2
2020-Apr-03 23:12 036 7 gusting 17 7.2
2020-Apr-03 23:07 030 8 gusting 17 7.2
2020-Apr-03 23:02 343 8 gusting 16 7.2
2020-Apr-03 22:57 325 8 gusting 18 7.2
2020-Apr-03 22:52 078 8 gusting 18 7.2
2020-Apr-03 22:47 355 6 gusting 14 7.2
2020-Apr-03 22:42 347 6 gusting 18 7.2
2020-Apr-03 22:37 345 8 gusting 19 7.2
2020-Apr-03 22:32 350 8 gusting 19 7.2
2020-Apr-03 22:27 340 8 gusting 19 7.2
2020-Apr-03 22:22 7.2
2020-Apr-03 22:17 020 7 gusting 17 7.2
2020-Apr-03 22:12 348 8 gusting 16 7.2
2020-Apr-03 22:07 026 8 gusting 16 7.2
2020-Apr-03 22:02 355 7 gusting 18 7.2
2020-Apr-03 21:57 355 7 gusting 19 7.2
2020-Apr-03 21:52 005 8 gusting 19 7.2
2020-Apr-03 21:47 297 9 gusting 19 7.2
2020-Apr-03 21:42 349 9 gusting 19 7.2
2020-Apr-03 21:37 005 10 gusting 19 7.2
2020-Apr-03 21:32 036 8 gusting 18 7.2
2020-Apr-03 21:27 351 7 gusting 18 7.2
2020-Apr-03 21:22 015 8 gusting 19 7.8
2020-Apr-03 21:17 028 9 gusting 19 7.8
2020-Apr-03 21:12 335 8 gusting 17 7.8
2020-Apr-03 21:07 331 7 gusting 20 7.8
2020-Apr-03 21:02 346 8 gusting 20 7.8
2020-Apr-03 20:57 329 8 gusting 18 7.8
2020-Apr-03 20:52 345 7 gusting 19 7.8
2020-Apr-03 20:47 355 8 gusting 19 7.8
2020-Apr-03 20:42 338 8 gusting 19 7.8
2020-Apr-03 20:37 030 8 gusting 20 7.8
2020-Apr-03 20:32 035 8 gusting 21 7.8
2020-Apr-03 20:27 005 9 gusting 21 7.8
2020-Apr-03 20:22 335 10 gusting 21 7.8
2020-Apr-03 20:17 032 9 gusting 18 7.8
2020-Apr-03 20:12 028 9 gusting 20 7.8
2020-Apr-03 20:07 005 9 gusting 20 7.8
2020-Apr-03 20:02 349 8 gusting 20 7.8
2020-Apr-03 19:57 340 8 gusting 19 7.8
2020-Apr-03 19:52 036 10 gusting 19 7.8
2020-Apr-03 19:47 7.8
2020-Apr-03 19:42 014 9 gusting 21 7.8
2020-Apr-03 19:37 009 9 gusting 24 7.8
2020-Apr-03 19:32 326 8 gusting 24 7.8
2020-Apr-03 19:27 024 9 gusting 24 7.8
2020-Apr-03 19:22 338 10 gusting 21 7.8
2020-Apr-03 19:17 355 11 gusting 21 7.8
2020-Apr-03 19:12 015 10 gusting 18 7.8
2020-Apr-03 19:07 009 8 gusting 19 7.8
2020-Apr-03 19:02 355 8 gusting 19 7.8
2020-Apr-03 18:57 355 8 gusting 19 7.8
2020-Apr-03 18:52 005 8 gusting 19 7.8
2020-Apr-03 18:47 005 8 gusting 19 7.8
2020-Apr-03 18:42 355 8 gusting 18 7.8
2020-Apr-03 18:37 338 7 gusting 21 7.8
2020-Apr-03 18:32 005 9 gusting 21 7.8
2020-Apr-03 18:27 7.8
2020-Apr-03 18:22 7.8
2020-Apr-03 18:17 7.8
2020-Apr-03 18:12 017 10 gusting 25 7.8
2020-Apr-03 18:07 342 10 gusting 23 7.8
2020-Apr-03 18:02 325 10 gusting 20 7.8
2020-Apr-03 17:57 024 9 gusting 20 7.8
2020-Apr-03 17:52 344 8 gusting 22 7.8
2020-Apr-03 17:47 016 8 gusting 22 7.8
2020-Apr-03 17:42 7.8
2020-Apr-03 17:37 346 9 gusting 22 7.8
2020-Apr-03 17:32 331 8 gusting 16 7.8
2020-Apr-03 17:27 328 7 gusting 17 7.8
2020-Apr-03 17:22 355 7 gusting 19 7.8
2020-Apr-03 17:17 005 7 gusting 20 7.8
2020-Apr-03 17:12 011 9 gusting 20 7.8
2020-Apr-03 17:07 057 11 gusting 20 7.8
2020-Apr-03 17:02 049 10 gusting 26 7.8
2020-Apr-03 16:57 013 10 gusting 26 7.8
2020-Apr-03 16:52 344 10 gusting 20 7.8
2020-Apr-03 16:47 7.8
2020-Apr-03 16:42 005 8 gusting 24 7.8
2020-Apr-03 16:37 355 9 gusting 24 7.8
2020-Apr-03 16:32 261 9 gusting 23 7.8
2020-Apr-03 16:27 355 9 gusting 23 7.8
2020-Apr-03 16:22 335 9 gusting 23 7.8
2020-Apr-03 16:17 333 8 gusting 17 7.8
2020-Apr-03 16:12 338 8 gusting 17 7.8
2020-Apr-03 16:07 032 7 gusting 18 7.8
2020-Apr-03 16:02 344 7 gusting 18 7.8
2020-Apr-03 15:57 023 7 gusting 18 7.8
2020-Apr-03 15:52 346 7 gusting 16 7.8
2020-Apr-03 15:47 355 7 gusting 16 7.8
2020-Apr-03 15:42 329 6 gusting 19 7.8
2020-Apr-03 15:37 7.8
2020-Apr-03 15:32 355 7 gusting 19 7.8
2020-Apr-03 15:27 005 6 gusting 18 7.8
2020-Apr-03 15:22 005 6 gusting 18 7.8
2020-Apr-03 15:17 338 7 gusting 18 7.8
2020-Apr-03 15:12 344 8 gusting 13 7.8
2020-Apr-03 15:07 330 6 gusting 19 7.8
2020-Apr-03 15:02 7.8
2020-Apr-03 14:57 355 6 gusting 19 7.8
2020-Apr-03 14:52 349 5 gusting 15 7.8
2020-Apr-03 14:47 346 5 gusting 16 7.8
2020-Apr-03 14:42 351 6 gusting 19 7.2
2020-Apr-03 14:37 320 7 gusting 19 7.2
2020-Apr-03 14:32 011 7 gusting 19 7.2
2020-Apr-03 14:27 005 6 gusting 16 7.2
2020-Apr-03 14:22 010 6 gusting 16 7.2
2020-Apr-03 14:17 005 6 gusting 16 7.2
2020-Apr-03 14:12 338 5 gusting 15 7.2
2020-Apr-03 14:07 355 6 gusting 15 7.2
2020-Apr-03 14:02 336 6 gusting 15 7.2
2020-Apr-03 13:57 301 5 gusting 12 7.2
2020-Apr-03 13:52 7.2
2020-Apr-03 13:47 311 4 gusting 13 7.2
2020-Apr-03 13:42 338 6 gusting 13 7.2
2020-Apr-03 13:37 336 5 gusting 13 7.2
2020-Apr-03 13:32 019 5 gusting 13 7.2
2020-Apr-03 13:27 031 5 gusting 11 7.2
2020-Apr-03 13:22 317 5 gusting 11 7.2
2020-Apr-03 13:17 312 5 gusting 15 7.2
2020-Apr-03 13:12 338 6 gusting 15 7.2
2020-Apr-03 13:07 355 6 gusting 19 7.2
2020-Apr-03 13:02 346 6 gusting 19 7.2
2020-Apr-03 12:57 331 5 gusting 13 7.2
2020-Apr-03 12:52 333 5 gusting 13 7.2
2020-Apr-03 12:47 323 5 gusting 14 6.7
2020-Apr-03 11:32 336 4 gusting 13 6.7
2020-Apr-03 11:27 286 4 gusting 13 6.7
2020-Apr-03 11:22 312 4 gusting 12 6.7
2020-Apr-03 11:17 323 4 gusting 12 6.7
2020-Apr-03 11:12 325 6 gusting 12 6.1
2020-Apr-03 11:02 284 4 gusting 11 6.1
2020-Apr-03 10:57 340 3 gusting 13 6.1
2020-Apr-03 10:47 327 5 gusting 15 6.1
2020-Apr-03 10:42 311 5 gusting 15 6.1
2020-Apr-03 10:37 329 4 gusting 14 6.1
2020-Apr-03 10:32 320 4 gusting 16 6.1
2020-Apr-03 10:27 318 5 gusting 16 6.1
2020-Apr-03 10:22 355 6 gusting 16 6.1
2020-Apr-03 10:17 316 5 gusting 12 6.1
2020-Apr-03 10:12 330 4 gusting 12 6.1
2020-Apr-03 10:07 347 4 gusting 12 6.1
2020-Apr-03 10:02 298 4 gusting 12 6.1
2020-Apr-03 09:57 342 4 gusting 12 6.1
2020-Apr-03 09:52 331 5 gusting 11 6.1
2020-Apr-03 09:47 312 4 gusting 12 6.1
2020-Apr-03 09:42 321 4 gusting 13 6.1
2020-Apr-03 09:37 328 4 gusting 13 6.1
2020-Apr-03 09:32 335 5 gusting 12 6.1
2020-Apr-03 09:27 323 5 gusting 12 6.1
2020-Apr-03 09:22 306 4 gusting 13 6.1
2020-Apr-03 09:17 327 5 gusting 13 6.1
2020-Apr-03 09:12 329 5 gusting 13 6.1
2020-Apr-03 09:07 308 6 gusting 13 6.1
2020-Apr-03 09:02 314 6 gusting 13 6.1
2020-Apr-03 08:57 340 5 gusting 12 6.1
2020-Apr-03 08:52 298 4 gusting 12 6.1
2020-Apr-03 08:47 318 4 gusting 12 6.1
2020-Apr-03 08:42 332 4 gusting 11 6.1
2020-Apr-03 08:37 309 4 gusting 14 5.6
2020-Apr-03 08:32 300 4 gusting 15 5.6
2020-Apr-03 08:27 338 6 gusting 15 5.6
2020-Apr-03 08:22 312 6 gusting 15 5.6
2020-Apr-03 08:17 296 4 gusting 13 5.6
2020-Apr-03 08:12 018 4 gusting 13 5.6
2020-Apr-03 08:07 331 4 gusting 13 5.6
2020-Apr-03 08:02 296 3 gusting 15 5.6
2020-Apr-03 07:57 305 4 gusting 15 5.6
2020-Apr-03 07:52 342 5 gusting 15 5.6
2020-Apr-03 07:47 257 4 gusting 10 5.6
2020-Apr-03 07:42 299 4 gusting 13 5.6
2020-Apr-03 07:37 333 4 gusting 13 5.6
2020-Apr-03 07:32 300 4 gusting 11 5.6
2020-Apr-03 07:27 332 4 gusting 12 5.6
2020-Apr-03 07:22 305 5 gusting 13 5.6
2020-Apr-03 07:17 334 6 gusting 13 5.6
2020-Apr-03 07:12 321 5 gusting 13 5.6
2020-Apr-03 07:07 290 5 gusting 13 5.6
2020-Apr-03 07:02 308 5 gusting 13 5.6
2020-Apr-03 06:57 300 4 gusting 13 5.6
2020-Apr-03 06:52 322 4 gusting 13 5.6
2020-Apr-03 06:47 298 4 gusting 13 5.6
2020-Apr-03 06:42 005 5 gusting 13 5.6
2020-Apr-03 06:37 340 5 gusting 12 5.6
2020-Apr-03 06:32 312 4 gusting 13 5.6
2020-Apr-03 06:27 330 4 gusting 13 5.6
2020-Apr-03 06:22 284 4 gusting 13 5.6
2020-Apr-03 06:17 324 4 gusting 12 5.6
2020-Apr-03 06:12 317 5 gusting 13 5.0
2020-Apr-03 06:07 347 5 gusting 13 5.0
2020-Apr-03 06:02 334 6 gusting 13 5.0
2020-Apr-03 05:57 326 5 gusting 12 5.0
2020-Apr-03 05:52 278 5 gusting 12 5.0
2020-Apr-03 05:47 243 5 gusting 12 5.0
2020-Apr-03 05:42 319 5 gusting 12 5.0
2020-Apr-03 05:37 288 4 gusting 16 5.0
2020-Apr-03 05:32 327 5 gusting 16 5.0
2020-Apr-03 05:27 317 5 gusting 12 5.0
2020-Apr-03 05:22 274 5 gusting 11 5.0
2020-Apr-03 05:17 308 5 gusting 12 5.0
2020-Apr-03 05:12 312 6 gusting 12 5.0
2020-Apr-03 05:07 297 6 gusting 13 4.4
2020-Apr-03 05:02 310 5 gusting 13 4.4
2020-Apr-03 04:57 324 4 gusting 13 4.4
2020-Apr-03 04:52 301 5 gusting 13 4.4
2020-Apr-03 04:47 336 6 gusting 13 4.4
2020-Apr-03 04:42 322 6 gusting 13 4.4
2020-Apr-03 04:37 322 5 gusting 13 4.4
2020-Apr-03 04:32 302 4 gusting 13 4.4
2020-Apr-03 04:27 302 4 gusting 15 4.4
2020-Apr-03 04:22 290 6 gusting 15 4.4
2020-Apr-03 04:17 312 6 gusting 15 4.4
2020-Apr-03 04:12 300 5 gusting 13 4.4
2020-Apr-03 04:07 277 5 gusting 13 4.4
2020-Apr-03 04:02 323 5 gusting 13 4.4
2020-Apr-03 03:57 296 6 gusting 13 4.4
2020-Apr-03 03:52 327 6 gusting 13 4.4
2020-Apr-03 03:47 323 6 gusting 11 4.4
2020-Apr-03 03:42 279 6 gusting 11 4.4
2020-Apr-03 03:37 302 5 gusting 13 4.4
2020-Apr-03 03:32 290 6 gusting 17 4.4
2020-Apr-03 03:27 345 6 gusting 17 4.4
2020-Apr-03 03:22 291 6 gusting 17 4.4
2020-Apr-03 03:17 325 6 gusting 13 4.4
2020-Apr-03 03:12 308 5 gusting 13 4.4
2020-Apr-03 03:07 301 5 gusting 13 4.4
2020-Apr-03 03:02 341 5 gusting 12 4.4
2020-Apr-03 02:57 284 4 gusting 14 4.4
2020-Apr-03 02:52 310 6 gusting 14 4.4
2020-Apr-03 02:47 300 6 gusting 14 4.4
2020-Apr-03 02:42 298 6 gusting 13 4.4
2020-Apr-03 02:37 297 6 gusting 13 4.4
2020-Apr-03 02:32 313 5 gusting 15 4.4
2020-Apr-03 02:27 269 5 gusting 15 4.4
2020-Apr-03 02:22 323 5 gusting 15 4.4
2020-Apr-03 02:17 324 5 gusting 18 4.4
2020-Apr-03 02:12 321 5 gusting 18 4.4
2020-Apr-03 02:07 299 6 gusting 19 4.4
2020-Apr-03 02:02 350 6 gusting 19 4.4
2020-Apr-03 01:57 288 7 gusting 14 4.4
2020-Apr-03 01:52 316 6 gusting 14 4.4
2020-Apr-03 01:47 289 6 gusting 14 4.4
2020-Apr-03 01:42 298 6 gusting 14 4.4
2020-Apr-03 01:37 300 6 gusting 14 3.9
2020-Apr-03 01:32 302 7 gusting 16 3.9
2020-Apr-03 01:27 300 6 gusting 16 3.9
2020-Apr-03 01:22 266 7 gusting 16 3.9
2020-Apr-03 01:17 301 6 gusting 17 4.4
2020-Apr-03 01:12 300 6 gusting 17 3.9
2020-Apr-03 01:07 281 8 gusting 17 4.4
2020-Apr-03 01:02 283 8 gusting 15 4.4
2020-Apr-03 00:57 319 6 gusting 14 4.4
2020-Apr-03 00:52 284 6 gusting 18 4.4
2020-Apr-03 00:47 305 6 gusting 19 4.4
2020-Apr-03 00:42 283 6 gusting 19 4.4
2020-Apr-03 00:37 295 6 gusting 19 4.4
2020-Apr-03 00:32 348 6 gusting 22 4.4
2020-Apr-03 00:27 263 7 gusting 22 4.4
2020-Apr-03 00:22 294 6 gusting 22 4.4
2020-Apr-03 00:17 306 6 gusting 16 4.4
2020-Apr-03 00:12 316 7 gusting 15 4.4
2020-Apr-03 00:07 300 7 gusting 14 4.4
2020-Apr-03 00:02 290 6 gusting 17 4.4
2020-Apr-02 23:57 282 7 gusting 17 4.4
2020-Apr-02 23:52 263 7 gusting 18 4.4
2020-Apr-02 23:47 277 7 gusting 18 5.0
2020-Apr-02 23:42 300 8 gusting 19 5.0
2020-Apr-02 23:37 290 7 gusting 19 5.0
2020-Apr-02 23:32 268 6 gusting 19 5.0
2020-Apr-02 23:27 315 6 gusting 13 5.0
2020-Apr-02 23:22 281 6 gusting 15 5.0
2020-Apr-02 23:17 328 6 gusting 16 5.0
2020-Apr-02 23:12 278 6 gusting 16 5.0
2020-Apr-02 23:07 284 7 gusting 21 5.0
2020-Apr-02 23:02 317 7 gusting 21 5.6
2020-Apr-02 22:57 319 7 gusting 17 5.6
2020-Apr-02 22:52 322 8 gusting 19 5.6
2020-Apr-02 22:47 339 9 gusting 19 5.6
2020-Apr-02 22:42 309 9 gusting 19 5.6
2020-Apr-02 22:37 305 8 gusting 19 5.6
2020-Apr-02 22:32 313 7 gusting 19 6.1
2020-Apr-02 22:27 311 6 gusting 17 6.1
2020-Apr-02 22:22 344 6 gusting 17 6.1
2020-Apr-02 18:02 349 5 gusting 15 10.6
2020-Apr-02 17:32
2020-Apr-02 17:27
2020-Apr-02 17:22
2020-Apr-02 17:17
2020-Apr-02 17:12
2020-Apr-02 17:07
2020-Apr-02 17:02
2020-Apr-02 16:02 10.6
2020-Apr-02 15:02